Zurück zum Katalog

STARLINK-11464

AktivKommunikationVLEO
NORAD 62473·PAYLOAD·🇺🇸 United States

Gestartet Dec 31, 2024 von Cape Canaveral Space Force Station

Loading…

Nächste Überflüge (nächste 24 Stunden)

TLE

AktuellSource: CelesTrak SupGP

Epoche: Sep 14, 2026, 20:42 UTC

1 62473C 24254M   26257.86298611 -.00011244  00000+0 -87345-4 0  2573
2 62473  43.0005 162.8674 0001697 258.3921  23.6246 15.70840371    13

Verfolge STARLINK-11464 in Echtzeit mit AllMySat

Download on the App Store